Freeport, IL

6:39 AM CST on February 19, 2017 (GMT -0600)
Albertus

Weather History for KFEP - September, 2013

Change the Weather History Date:

Tuesday, September 24, 2013

  Actual Average Record
Temperature  
Mean Temperature 59 °F -  
Max Temperature 74 °F 66 °F 86 °F (2007)
Min Temperature 44 °F 41 °F 29 °F (1976)
Degree Days  
Heating Degree Days 6    
Growing Degree Days 9 (Base 50)    
Moisture  
Dew Point 49 °F    
Average Humidity 75    
Maximum Humidity 95    
Minimum Humidity 42    
Precipitation  
Precipitation 0.00 in - - ()
Sea Level Pressure  
Sea Level Pressure 30.01 in    
Wind  
Wind Speed 6 mph (East)    
Max Wind Speed 12 mph    
Max Gust Speed 22 mph    
Visibility 9 miles    
Events Fog    
Averages and records for this station are not official NWS values.
T = Trace of Precipitation, MM = Missing Value Source: NWS Daily Summary

Daily Weather History Graph

Daily Weather History Graph

Search for Another Location

Airport or City:

Trip Planner

Search our weather history database for the weather conditions in past years. The results will help you decide how hot, cold, wet, or windy it might be!

Date:

Astronomy

Sep. 24, 2013 Rise Set
Actual Time 6:48 AM CDT 6:51 PM CDT
Civil Twilight 6:20 AM CDT 7:19 PM CDT
Nautical Twilight 5:47 AM CDT 7:52 PM CDT
Astronomical Twilight 5:14 AM CDT 8:25 PM CDT
Moon 10:03 PM CDT (9/24) 12:08 PM CDT (9/24)
Length of Visible Light 12h 59m
Length of Day
12h 03m
Waning Gibbous, 73% of the Moon is Illuminated
Sep 24
Waning Gibbous
Sep 26
Last Quarter
Oct 4
New
Oct 11
First Quarter
Oct 18
Full

Hourly Weather History & Observations

Time (CDT) Temp. Windchill Dew Point Humidity Pressure Visibility Wind Dir Wind Speed Gust Speed Precip Events Conditions
12:15 AM 48.6 °F - 46.6 °F 93% 30.04 in 10.0 mi East 4.6 mph - N/A   Clear
12:35 AM 46.6 °F - 44.8 °F 93% 30.05 in 7.0 mi East 4.6 mph - N/A   Clear
12:55 AM 46.4 °F 45.2 °F 44.6 °F 93% 30.05 in 0.8 mi East 3.5 mph - N/A   Mist
1:15 AM 45.5 °F 43.2 °F 43.9 °F 94% 30.04 in 0.5 mi East 4.6 mph - N/A Fog Fog
1:35 AM 45.1 °F 42.8 °F 43.7 °F 95% 30.05 in 5.0 mi East 4.6 mph - N/A   Clear
1:55 AM 44.4 °F 42.0 °F 42.8 °F 94% 30.04 in 1.5 mi East 4.6 mph - N/A   Mist
2:35 AM 45.7 °F 44.4 °F 44.1 °F 94% 30.05 in 1.5 mi East 3.5 mph - N/A   Mist
2:55 AM 45.1 °F 43.7 °F 43.5 °F 94% 30.04 in 4.0 mi East 3.5 mph - N/A   Clear
3:15 AM 46.4 °F - 44.6 °F 93% 30.05 in 3.0 mi Calm Calm - N/A   Clear
3:35 AM 46.4 °F 45.2 °F 44.6 °F 93% 30.05 in 3.0 mi ESE 3.5 mph - N/A   Clear
3:55 AM 45.5 °F 44.2 °F 43.9 °F 94% 30.05 in 1.0 mi ESE 3.5 mph - N/A   Mist
4:35 AM 45.0 °F 42.6 °F 43.3 °F 94% 30.05 in 4.0 mi ESE 4.6 mph - N/A   Clear
4:55 AM 45.3 °F 44.0 °F 43.7 °F 94% 30.05 in 4.0 mi ESE 3.5 mph - N/A   Clear
5:15 AM 46.4 °F 43.5 °F 44.6 °F 93% 30.05 in 7.0 mi ESE 5.8 mph - N/A   Clear
5:35 AM 46.9 °F - 45.1 °F 93% 30.05 in 7.0 mi ESE 6.9 mph - N/A   Clear
5:55 AM 47.3 °F - 45.5 °F 93% 30.05 in 7.0 mi ESE 8.1 mph - N/A   Clear
6:15 AM 47.3 °F - 45.0 °F 92% 30.04 in 10.0 mi ESE 8.1 mph - N/A   Clear
6:35 AM 47.3 °F - 45.0 °F 92% 30.04 in 10.0 mi ESE 5.8 mph - N/A   Clear
6:55 AM 47.1 °F - 44.8 °F 92% 30.04 in 10.0 mi SE 4.6 mph - N/A   Clear
7:15 AM 46.9 °F - 44.8 °F 92% 30.04 in 10.0 mi ESE 4.6 mph - N/A   Clear
7:35 AM 47.7 °F - 45.5 °F 92% 30.04 in 7.0 mi ESE 4.6 mph - N/A   Clear
7:55 AM 50.0 °F - 47.7 °F 92% 30.04 in 10.0 mi ESE 6.9 mph - N/A   Clear
8:15 AM 52.2 °F - 49.5 °F 91% 30.04 in 10.0 mi East 6.9 mph - N/A   Clear
8:35 AM 54.0 °F - 50.9 °F 89% 30.04 in 10.0 mi ESE 6.9 mph - N/A   Clear
8:55 AM 54.0 °F - 50.2 °F 87% 30.04 in 10.0 mi ESE 8.1 mph - N/A   Clear
9:15 AM 56.5 °F - 52.0 °F 85% 30.04 in 10.0 mi ESE 8.1 mph - N/A   Clear
9:35 AM 59.0 °F - 53.6 °F 82% 30.04 in 10.0 mi ESE 8.1 mph - N/A   Clear
9:55 AM 59.9 °F - 52.9 °F 78% 30.04 in 10.0 mi ESE 8.1 mph - N/A   Clear
10:15 AM 61.7 °F - 53.8 °F 75% 30.04 in 10.0 mi ESE 5.8 mph - N/A   Clear
10:35 AM 63.9 °F - 54.7 °F 72% 30.04 in 10.0 mi East 6.9 mph - N/A   Clear
10:55 AM 64.9 °F - 53.8 °F 67% 30.03 in 10.0 mi East 6.9 mph - N/A   Clear
11:15 AM 65.8 °F - 53.4 °F 64% 30.02 in 10.0 mi East 6.9 mph - N/A   Clear
11:35 AM 67.8 °F - 53.2 °F 60% 30.02 in 10.0 mi ESE 9.2 mph 16.1 mph N/A   Clear
11:55 AM 69.3 °F - 53.2 °F 57% 30.01 in 10.0 mi ESE 10.4 mph 17.3 mph N/A   Clear
12:15 PM 69.3 °F - 53.1 °F 56% 30.01 in 10.0 mi East 9.2 mph - N/A   Clear
12:55 PM 71.8 °F - 52.7 °F 51% 30.01 in 10.0 mi East 9.2 mph - N/A   Clear
1:15 PM 72.7 °F - 52.7 °F 49% 30.00 in 10.0 mi ESE 9.2 mph - N/A   Clear
1:35 PM 74.3 °F - 52.5 °F 46% 30.00 in 10.0 mi ESE 9.2 mph - N/A   Clear
1:55 PM 74.3 °F - 51.3 °F 44% 29.99 in 10.0 mi ESE 5.8 mph 16.1 mph N/A   Clear
2:15 PM 74.3 °F - 50.5 °F 43% 29.98 in 10.0 mi SSE 9.2 mph - N/A   Clear
2:35 PM 74.3 °F - 50.7 °F 43% 29.98 in 10.0 mi ESE 9.2 mph - N/A   Clear
2:55 PM 74.3 °F - 49.6 °F 42% 29.97 in 10.0 mi East 9.2 mph - N/A   Clear
3:15 PM 74.3 °F - 50.5 °F 43% 29.96 in 10.0 mi East 11.5 mph 16.1 mph N/A   Clear
3:35 PM 74.3 °F - 49.6 °F 42% 29.96 in 10.0 mi East 10.4 mph - N/A   Clear
3:55 PM 74.3 °F - 50.0 °F 42% 29.95 in 10.0 mi East 11.5 mph 21.9 mph N/A   Clear
4:15 PM 74.3 °F - 49.6 °F 42% 29.95 in 10.0 mi East 11.5 mph 18.4 mph N/A   Clear
4:35 PM 74.3 °F - 50.0 °F 42% 29.95 in 10.0 mi East 6.9 mph - N/A   Clear
4:55 PM 74.3 °F - 50.2 °F 43% 29.96 in 10.0 mi East 8.1 mph - N/A   Clear
5:15 PM 74.3 °F - 50.2 °F 43% 29.96 in 10.0 mi East 9.2 mph - N/A   Clear
5:35 PM 72.3 °F - 48.9 °F 43% 29.96 in 10.0 mi East 10.4 mph - N/A   Clear
5:55 PM 71.6 °F - 50.2 °F 47% 29.96 in 10.0 mi East 6.9 mph - N/A   Clear
6:15 PM 68.2 °F - 49.6 °F 51% 29.96 in 10.0 mi East 4.6 mph - N/A   Clear
6:35 PM 65.3 °F - 51.1 °F 60% 29.96 in 10.0 mi East 4.6 mph - N/A   Clear
6:55 PM 63.3 °F - 51.3 °F 65% 29.96 in 10.0 mi East 4.6 mph - N/A   Clear
7:15 PM 61.5 °F - 52.0 °F 71% 29.96 in 10.0 mi East 3.5 mph - N/A   Clear
7:35 PM 59.0 °F - 51.1 °F 75% 29.96 in 10.0 mi East 6.9 mph - N/A   Clear
7:55 PM 56.5 °F - 50.9 °F 82% 29.97 in 10.0 mi ENE 5.8 mph - N/A   Clear
8:15 PM 56.5 °F - 50.9 °F 82% 29.98 in 10.0 mi East 4.6 mph - N/A   Clear
8:35 PM 56.5 °F - 51.4 °F 83% 29.98 in 10.0 mi East 5.8 mph - N/A   Clear
8:55 PM 54.7 °F - 50.2 °F 85% 29.98 in 10.0 mi East 6.9 mph - N/A   Clear
9:15 PM 54.0 °F - 50.0 °F 86% 29.98 in 10.0 mi East 4.6 mph - N/A   Clear
9:35 PM 54.0 °F - 50.4 °F 88% 29.97 in 10.0 mi East 4.6 mph - N/A   Clear
9:55 PM 54.0 °F - 50.4 °F 88% 29.97 in 10.0 mi East 5.8 mph - N/A   Clear
10:15 PM 53.4 °F - 50.4 °F 89% 29.98 in 10.0 mi ENE 4.6 mph - N/A   Clear
10:35 PM 53.4 °F - 50.2 °F 89% 29.98 in 10.0 mi East 4.6 mph - N/A   Clear
10:55 PM 51.4 °F - 48.6 °F 90% 29.98 in 10.0 mi Calm Calm - N/A   Clear
11:15 PM 51.4 °F - 48.9 °F 91% 29.98 in 10.0 mi ENE 3.5 mph - N/A   Clear
11:35 PM 51.4 °F - 48.7 °F 90% 29.99 in 10.0 mi Calm Calm - N/A   Clear
11:55 PM 51.4 °F - 48.7 °F 90% 29.99 in 10.0 mi East 4.6 mph - N/A   Clear